This is the latest recevied weather packets stored in our database for station/object OK4PZ-5. If no packets are shown the sender has not sent any weather packets the latest 10 day(s).
| Time | Temp. | Humidity | Pressure | Rain* | Wind** | Luminosity | Snow |
|---|---|---|---|---|---|---|---|
| 1788357603 | 23.33° C | 48% | 1022 hPa | 0 mm | - | - | - |
| 1788356702 | 23.33° C | 49% | 1022 hPa | 0 mm | - | - | - |
| 1788355802 | 23.89° C | 47% | 1022 hPa | 0 mm | - | - | - |
| 1788354902 | 24.44° C | 45% | 1022 hPa | 0 mm | - | - | - |
| 1788354002 | 23.89° C | 45% | 1023 hPa | 0 mm | - | - | - |
| 1788353102 | 24.44° C | 47% | 1023 hPa | 0 mm | - | - | - |
| 1788352202 | 23.89° C | 48% | 1023 hPa | 0 mm | - | - | - |
| 1788351301 | 23.89° C | 46% | 1023 hPa | 0 mm | - | - | - |
| 1788350402 | 23.33° C | 46% | 1023 hPa | 0 mm | - | - | - |
| 1788349502 | 23.33° C | 46% | 1023 hPa | 0 mm | - | - | - |
| 1788348602 | 22.78° C | 46% | 1023 hPa | 0 mm | - | - | - |
| 1788347702 | 23.89° C | 45% | 1023 hPa | 0 mm | - | - | - |
| 1788346802 | 22.78° C | 47% | 1024 hPa | 0 mm | - | - | - |
| 1788345902 | 23.33° C | 45% | 1024 hPa | 0 mm | - | - | - |
| 1788345002 | 22.78° C | 48% | 1024 hPa | 0 mm | - | - | - |
| 1788344102 | 23.33° C | 48% | 1024 hPa | 0 mm | - | - | - |
| 1788343203 | 22.22° C | 51% | 1024 hPa | 0 mm | - | - | - |
| 1788342303 | 22.22° C | 49% | 1024 hPa | 0 mm | - | - | - |
| 1788341403 | 22.22° C | 54% | 1024 hPa | 0 mm | - | - | - |
| 1788340502 | 22.22° C | 55% | 1024 hPa | 0 mm | - | - | - |
| 1788339602 | 22.22° C | 55% | 1024 hPa | 0 mm | - | - | - |
| 1788338702 | 20.56° C | 56% | 1024 hPa | 0 mm | - | - | - |
| 1788337802 | 21.11° C | 59% | 1024 hPa | 0 mm | - | - | - |
| 1788336901 | 20.56° C | 62% | 1024 hPa | 0 mm | - | - | - |
| 1788336002 | 20.56° C | 63% | 1024 hPa | 0 mm | - | - | - |
* Rain latest hour (hover to see other rain measurements)
** Current wind speed in m/s (hover to see current wind gust speed)